This is the latest recevied weather packets stored in our database for station/object 5B4ALR-13. If no packets are shown the sender has not sent any weather packets the latest 10 day(s).
| Time | Temp. | Humidity | Pressure | Rain* | Wind** | Luminosity | Snow |
|---|---|---|---|---|---|---|---|
| 1778357470 | 23.33° C | 36% | 1016.2 hPa | 0 mm | - | - | - |
| 1778356870 | 23.33° C | 36% | 1016.1 hPa | 0 mm | - | - | - |
| 1778356270 | 22.78° C | 38% | 1016.1 hPa | 0 mm | - | - | - |
| 1778355670 | 22.78° C | 39% | 1016.1 hPa | 0 mm | - | - | - |
| 1778355070 | 22.78° C | 39% | 1015.9 hPa | 0 mm | - | - | - |
| 1778354470 | 22.78° C | 39% | 1015.9 hPa | 0 mm | - | - | - |
| 1778353870 | 23.33° C | 40% | 1016 hPa | 0 mm | - | - | - |
| 1778353270 | 23.89° C | 39% | 1016.1 hPa | 0 mm | - | - | - |
| 1778352670 | 23.89° C | 38% | 1016 hPa | 0 mm | - | - | - |
| 1778352070 | 23.89° C | 38% | 1016.1 hPa | 0 mm | - | - | - |
| 1778351470 | 24.44° C | 37% | 1016.1 hPa | 0 mm | - | - | - |
| 1778350870 | 25° C | 36% | 1015.9 hPa | 0 mm | - | - | - |
| 1778350270 | 25° C | 35% | 1015.9 hPa | 0 mm | - | - | - |
| 1778349670 | 25° C | 36% | 1015.9 hPa | 0 mm | - | - | - |
| 1778349070 | 25° C | 43% | 1015.9 hPa | 0 mm | - | - | - |
| 1778348470 | 25.56° C | 40% | 1015.9 hPa | 0 mm | - | - | - |
| 1778347870 | 26.11° C | 37% | 1015.8 hPa | 0 mm | - | - | - |
| 1778347270 | 26.11° C | 37% | 1015.7 hPa | 0 mm | - | - | - |
| 1778346670 | 26.11° C | 35% | 1015.7 hPa | 0 mm | - | - | - |
| 1778346070 | 26.67° C | 33% | 1015.5 hPa | 0 mm | - | - | - |
| 1778345470 | 26.67° C | 31% | 1015.6 hPa | 0 mm | - | - | - |
| 1778344870 | 27.22° C | 30% | 1015.5 hPa | 0 mm | - | - | - |
| 1778344270 | 27.22° C | 30% | 1015.5 hPa | 0 mm | - | - | - |
| 1778343670 | 27.22° C | 33% | 1015.5 hPa | 0 mm | - | - | - |
| 1778343070 | 27.22° C | 33% | 1015.5 hPa | 0 mm | - | - | - |
* Rain latest hour (hover to see other rain measurements)
** Current wind speed in m/s (hover to see current wind gust speed)